This demonstration page uses our WeatherBlox Daily Observations layout. Learn more.

Left ArrowRight Arrow

30.21309, -93.2044

Hourly Observations for February 28, 2022

Temp ( °F °C ) Dew Point ( °F °C ) Humidity (%) Winds ( mph kmh ) Pressure ( in mb ) Visibility ( mi km ) Precip ( " mm )
12:15 am 00:15 Clear 41 4.9 37 2.9 87 87 N 5 7 30.34 1027 10 16 0.00 0.00
12:35 am 00:35 Clear 41 4.9 37 3 88 88 NNE 5 7 30.34 1027 10 16 0.00 0.00
12:55 am 00:55 Clear 41 4.8 38 3.1 89 89 NNE 5 7 30.33 1027 10 16 0.00 0.00
1:15 am 01:15 Clear 40 4.6 37 2.9 89 89 NE 6 9 30.33 1027 10 16 0.00 0.00
1:35 am 01:35 Clear 40 4.3 37 2.8 90 90 NE 5 7 30.33 1027 10 16 0.00 0.00
1:55 am 01:55 Clear 39 4 37 2.6 91 91 NNE 5 7 30.33 1027 10 16 0.00 0.00
2:15 am 02:15 Clear 39 3.8 36 2.3 90 90 NE 3 6 30.33 1027 10 16 0.00 0.00
2:35 am 02:35 Clear 38 3.6 36 2.1 90 90 NE 3 6 30.33 1027 10 16 0.00 0.00
2:55 am 02:55 Clear 38 3.3 36 2 91 91 NNE 3 6 30.32 1027 10 16 0.00 0.00
3:15 am 03:15 Clear 38 3.4 36 2.2 92 92 N 3 6 30.31 1026 10 16 0.00 0.00
3:35 am 03:35 Clear 38 3.1 35 1.9 92 92 N 3 6 30.31 1026 10 16 0.00 0.00
3:55 am 03:55 Clear 37 2.9 35 1.7 92 92 N 3 6 30.32 1027 10 16 0.00 0.00
4:15 am 04:15 Clear 36 2.2 34 1.1 93 93 N 5 7 30.32 1027 10 16 0.00 0.00
4:35 am 04:35 Clear 36 2.3 34 1.3 93 93 N 3 6 30.32 1027 10 16 0.00 0.00
4:55 am 04:55 Clear 35 1.6 33 0.5 93 93 N 6 9 30.32 1027 10 16 0.00 0.00
5:15 am 05:15 Clear 36 2 34 1.1 94 94 NNW 6 9 30.33 1027 10 16 0.00 0.00
5:35 am 05:35 Clear 35 1.9 33 0.8 93 93 N 5 7 30.33 1027 10 16 0.00 0.00
6:00 am 06:00 Mostly Clear 36 2 34 1 93 93 N 6 9 30.33 1027 10 16 0.00 0.00
6:53 am 06:53 Mostly Sunny 36 2 34 1 93 93 Calm 30.35 1028 10 16 0.00 0.00
7:55 am 07:55 Mostly Sunny 39 4 37 3 93 93 N 7 11 30.38 1029 10 16 0.00 0.00
8:52 am 08:52 Mostly Sunny 45 7 36 2 71 71 N 9 15 30.38 1029 10 16 0.00 0.00
9:54 am 09:54 Mostly Sunny 50 10 36 2 58 58 NE 14 22 30.38 1029 10 16 0.00 0.00
10:50 am 10:50 Mostly Sunny 54 12 34 1 47 47 N 12 19 30.37 1028 10 16 0.00 0.00
11:50 am 11:50 Mostly Sunny 57 14 36 2 44 44 NNE 8 13 30.34 1027 10 16 0.00 0.00
12:55 pm 12:55 Mostly Sunny 61 16 32 0 34 34 NE 8 13 30.30 1026 10 16 0.00 0.00
1:53 pm 13:53 Mostly Sunny 63 17 30 -1 30 30 NNE 12 19 30.26 1025 10 16 0.00 0.00
2:57 pm 14:57 Mostly Sunny 63 17 28 -2 27 27 NNE 6 9 30.23 1024 10 16 0.00 0.00
3:48 pm 15:48 Mostly Sunny 64 18 28 -2 26 26 NNE 12 19 30.21 1023 10 16 0.00 0.00
4:45 pm 16:45 Mostly Sunny 64 18 28 -2 26 26 NE 12 19 30.20 1023 10 16 0.00 0.00
5:45 pm 17:45 Mostly Sunny 63 17 27 -3 25 25 NNE 12 19 30.21 1023 10 16 0.00 0.00
6:53 pm 18:53 Mostly Clear 55 13 30 -1 38 38 N 6 9 30.23 1024 10 16 0.00 0.00
7:55 pm 19:55 Mostly Clear 54 12 32 0 44 44 N 6 9 30.24 1024 10 16 0.00 0.00
8:47 pm 20:47 Mostly Clear 48 9 37 3 66 66 Calm 30.25 1024 10 16 0.00 0.00
9:55 pm 21:55 Mostly Clear 48 9 34 1 58 58 Calm 30.26 1025 10 16 0.00 0.00
10:15 pm 22:15 Clear 48 9 35 1.8 61 61 Calm 30.26 1025 10 16 0.00 0.00
10:35 pm 22:35 Clear 45 7.4 36 2 69 69 Calm 30.26 1025 10 16 0.00 0.00
10:55 pm 22:55 Clear 44 6.7 36 2.3 74 74 Calm 30.26 1025 10 16 0.00 0.00
11:15 pm 23:15 Clear 43 6.1 36 2.4 77 77 Calm 30.25 1024 10 16 0.00 0.00
11:35 pm 23:35 Clear 43 6.3 36 2.2 75 75 Calm 30.24 1024 10 16 0.00 0.00
11:55 pm 23:55 Clear 44 6.8 37 2.7 75 75 Calm 30.24 1024 10 16 0.00 0.00

Powered by AerisWeather